Airfield :
LOGIN :

Register | Disclaimer

   EN    FR    IT 

 










Legend :    VFR   Marginal VFR   IFR   Intensive IFR   Very Intensive IFR
Visi :
Ceiling :
>= 8 km
>= 3000ft
5 to 8 km
1000 to 3000 ft
1500m to 5 km
500 to 1000 ft
800 to 1500m
200 to 500 ft
< 800m
< 200 ft
Symbols :   Thunderstorms  Fog  Heavy snow  Heavy precipitations  Wind > 20 kt
SIGMETs :     Misc.  Thunderstorms  Icing  Turbulence  Mountain Waves  Volcanic Ashes







- Airport Elevation : 645 ft
- IATA code : DLE
- Download approach charts


LFGJ - Dole Tavaux

CURRENT METAR :
  • 192000Z AUTO 08003KT CAVOK 14/12 Q1013

EXPIRED METARs :
  • 191930Z AUTO 08004KT CAVOK 14/11 Q1013
  • 191900Z AUTO 06005KT CAVOK 14/11 Q1012 NOSIG
  • 191830Z AUTO 07005KT CAVOK 14/11 Q1012 NOSIG
  • 191800Z AUTO VRB02KT CAVOK 15/11 Q1012 NOSIG
  • 191730Z AUTO 09006KT CAVOK 16/12 Q1012 NOSIG

TAF TAF LFGJ
Valid from the 19 at 15:00 until the 20 at 00:00 UTC


191400Z 1915/1924 21006KT CAVOK
No reported NOTAMs for that airfield.



MET'MAP, your aeronautical weather chart ! - Copyright ORBIFLY December 2007 - Disclaimer

ORBIFLY MET'MAP TEAM :

Programming & Development : Alexandra Zaïnal
Concept & Development : Baudouin d'Aumeries
Co-Development & Prog : Marc-Olivier Méhu
Technical & hardware support : Manuel Goepfert

Contact : metmap@orbifly.com




SOURCES & CREDITS :

   NOAA